START_TIME,STEP,MOV.,M29,t_acc.,H22,t_acc.,H26,t_acc.,H30,t_acc.
1979-07-15 12:00:32.120 ,0,0,0.,24.0,0.,24.0,0.,24.0,0.,24.0
1979-07-15 12:00:56.120 ,1,1,0.,24.0,0.,24.0,0.,24.0,0.,24.0
1979-07-15 12:01:20.120 ,1,0,0.,24.0,0.,24.0,0.,24.0,0.,24.0
1979-07-15 12:01:44.120 ,2,1,0.,24.0,0.,24.0,0.,24.0,0.,24.0
1979-07-15 12:02:08.120 ,2,0,0.,24.0,0.,24.0,0.,24.0,0.,24.0
1979-07-15 12:02:32.120 ,3,1,0.,24.0,0.,24.0,0.,24.0,0.,24.0
1979-07-15 12:02:56.120 ,3,0,0.,24.0,0.,24.0,0.,24.0,0.,24.0
1979-07-15 12:03:20.120 ,4,1,0.,24.0,0.,24.0,0.,24.0,0.,24.0
1979-07-15 12:03:44.120 ,4,0,0.,24.0,0.,24.0,0.,24.0,0.,24.0
1979-07-15 12:04:08.120 ,5,1,0.,24.0,0.,24.0,0.,24.0,0.,24.0
1979-07-15 12:04:32.120 ,5,0,0.,24.0,0.,24.0,0.,24.0,0.,24.0
1979-07-15 12:04:56.120 ,6,1,0.,24.0,0.,24.0,0.,24.0,0.,24.0
1979-07-15 12:05:20.120 ,6,0,0.,24.0,0.,24.0,0.,24.0,0.,24.0
1979-07-15 12:05:44.120 ,7,1,0.,24.0,0.,24.0,0.,24.0,0.,24.0
1979-07-15 12:06:08.120 ,7,0,0.,24.0,0.,24.0,0.,24.0,0.,24.0
1979-07-15 12:06:32.120 ,7,1,0.,24.0,0.,24.0,0.,24.0,0.,24.0
1979-07-15 12:06:56.120 ,7,0,0.,24.0,0.,24.0,0.,24.0,0.,24.0
1979-07-15 12:07:20.120 ,6,1,0.,24.0,0.,24.0,0.,24.0,0.,24.0
1979-07-15 12:07:44.120 ,6,0,0.,24.0,0.,24.0,0.,24.0,0.,24.0
1979-07-15 12:07:44.120 ,6,0,0.,24.0,0.,24.0,0.,24.0,0.,24.0
1979-07-15 12:08:08.120 ,5,1,0.,24.0,0.,24.0,0.,24.0,0.,24.0
1979-07-15 12:08:32.120 ,5,0,0.,24.0,0.,24.0,0.,24.0,0.,24.0
1979-07-15 12:08:56.120 ,4,1,0.,24.0,0.,24.0,0.,24.0,0.,24.0
1979-07-15 12:09:20.120 ,4,0,0.,24.0,0.,24.0,0.,24.0,0.,24.0
1979-07-15 12:09:44.120 ,3,1,0.,24.0,0.,24.0,0.,24.0,0.,24.0
1979-07-15 12:10:08.120 ,3,0,0.,24.0,0.,24.0,0.,24.0,0.,24.0
1979-07-15 12:10:32.120 ,2,1,0.,24.0,0.,24.0,0.,24.0,0.,24.0
1979-07-15 12:10:56.120 ,2,0,0.,24.0,0.,24.0,0.,24.0,0.,24.0
1979-07-15 12:11:20.120 ,1,1,0.,24.0,0.,24.0,0.,24.0,0.,24.0
1979-07-15 12:11:44.120 ,1,0,0.,24.0,0.,24.0,0.,24.0,0.,24.0
1979-07-15 12:12:08.120 ,0,1,0.,24.0,0.,24.0,0.,24.0,0.,24.0
1979-07-15 12:12:32.120 ,0,0,0.,24.0,0.,24.0,0.,24.0,0.,24.0
1979-07-15 12:12:56.120 ,0,1,0.,24.0,0.,24.0,0.,24.0,0.,24.0
1979-07-15 12:13:20.120 ,0,0,0.,24.0,0.,24.0,0.,24.0,0.,24.0
1979-07-15 12:13:44.120 ,1,1,0.,24.0,0.,24.0,0.,24.0,0.,24.0
1979-07-15 12:14:08.120 ,1,0,0.,24.0,0.,24.0,0.,24.0,0.,24.0
1979-07-15 12:14:32.120 ,2,1,0.,24.0,0.,24.0,0.,24.0,0.,24.0
1979-07-15 12:14:56.120 ,2,0,0.,24.0,0.,24.0,0.,24.0,0.,24.0
1979-07-15 12:15:20.120 ,3,1,0.,24.0,0.,24.0,0.,24.0,0.,24.0
1979-07-15 12:15:44.120 ,3,0,0.,24.0,0.,24.0,0.,24.0,0.,24.0
1979-07-15 12:16:08.120 ,4,1,0.,24.0,0.,24.0,0.,24.0,0.,24.0
1979-07-15 12:16:32.120 ,4,0,0.,24.0,0.,24.0,0.,24.0,0.,24.0
1979-07-15 12:16:56.120 ,5,1,0.,24.0,0.,24.0,0.,24.0,0.,24.0
1979-07-15 12:17:20.120 ,5,0,0.,24.0,0.,24.0,0.,24.0,0.,24.0
1979-07-15 12:17:44.120 ,6,1,0.,24.0,0.,24.0,0.,24.0,0.,24.0
1979-07-15 12:18:08.120 ,6,0,0.,24.0,0.,24.0,0.,24.0,0.,24.0
1979-07-15 12:18:32.120 ,7,0,0.,24.0,0.,24.0,0.,24.0,0.,24.0
1979-07-15 12:18:56.120 ,7,0,0.,24.0,0.,24.0,0.,24.0,0.,24.0
1979-07-15 12:19:20.120 ,5,1,0.,24.0,0.,24.0,0.,24.0,0.,24.0
1979-07-15 12:19:44.120 ,1,1,0.,24.0,0.,24.0,0.,24.0,0.,24.0
1979-07-15 12:20:08.120 ,2,1,0.,24.0,0.,24.0,0.,24.0,0.,24.0
1979-07-15 12:20:32.120 ,6,1,0.,24.0,0.,24.0,0.,24.0,0.,24.0
1979-07-15 12:20:56.120 ,5,1,0.,24.0,0.,24.0,0.,24.0,0.,24.0
1979-07-15 12:21:20.120 ,1,1,0.,24.0,0.,24.0,0.,24.0,0.,24.0
1979-07-15 12:21:44.120 ,2,1,0.,24.0,0.,24.0,0.,24.0,0.,24.0
1979-07-15 12:22:08.120 ,6,1,0.,24.0,0.,24.0,0.,24.0,0.,24.0
1979-07-15 12:22:32.120 ,0,0,0.,24.0,0.,24.0,0.,24.0,0.,24.0
1979-07-15 12:22:56.120 ,1,1,0.,24.0,0.,24.0,0.,24.0,0.,24.0
1979-07-15 12:23:20.120 ,2,1,0.,24.0,0.,24.0,0.,24.0,0.,24.0
1979-07-15 12:23:44.120 ,6,1,0.,24.0,0.,24.0,0.,24.0,0.,24.0
1979-07-15 12:24:08.120 ,5,1,0.,24.0,0.,24.0,0.,24.0,0.,24.0
1979-07-15 12:24:32.120 ,1,1,0.,24.0,0.,24.0,0.,24.0,0.,24.0
1979-07-15 12:24:56.120 ,2,1,0.,24.0,0.,24.0,0.,24.0,0.,24.0
1979-07-15 12:25:20.120 ,6,1,0.,24.0,0.,24.0,0.,24.0,0.,24.0
1979-07-15 12:25:44.120 ,5,1,0.,24.0,0.,24.0,0.,24.0,0.,24.0
1979-07-15 12:26:08.120 ,1,1,0.,24.0,0.,24.0,0.,24.0,0.,24.0
1979-07-15 12:26:32.120 ,2,1,0.,24.0,0.,24.0,0.,24.0,0.,24.0
1979-07-15 12:26:56.120 ,6,1,0.,24.0,0.,24.0,0.,24.0,0.,24.0
1979-07-15 12:27:20.120 ,5,1,0.,24.0,0.,24.0,0.,24.0,0.,24.0
1979-07-15 12:27:44.120 ,1,1,0.,24.0,0.,24.0,0.,24.0,0.,24.0
1979-07-15 12:28:08.120 ,2,1,0.,24.0,0.,24.0,0.,24.0,0.,24.0
1979-07-15 12:28:32.120 ,6,1,0.,24.0,0.,24.0,0.,24.0,0.,24.0
1979-07-15 12:28:56.120 ,5,1,0.,24.0,0.,24.0,0.,24.0,0.,24.0
1979-07-15 12:29:20.120 ,1,1,0.,24.0,0.,24.0,0.,24.0,0.,24.0
1979-07-15 12:29:44.120 ,0,0,0.,24.0,0.,24.0,0.,24.0,0.,24.0
1979-07-15 12:30:08.120 ,0,0,0.,24.0,0.,24.0,0.,24.0,0.,24.0
1979-07-15 12:30:32.120 ,5,1,0.,24.0,0.,24.0,0.,24.0,0.,24.0
1979-07-15 12:30:56.120 ,5,0,0.,24.0,0.,24.0,0.,24.0,0.,24.0
1979-07-15 12:31:20.120 ,4,1,0.,24.0,0.,24.0,0.,24.0,0.,24.0
1979-07-15 12:31:44.120 ,4,0,0.,24.0,0.,24.0,0.,24.0,0.,24.0
1979-07-15 12:32:08.120 ,3,1,0.,24.0,0.,24.0,0.,24.0,0.,24.0
1979-07-15 12:32:32.120 ,3,0,0.,24.0,0.,24.0,0.,24.0,0.,24.0
1979-07-15 12:32:56.120 ,2,1,0.,24.0,0.,24.0,0.,24.0,0.,24.0
1979-07-15 12:33:20.120 ,2,0,0.,24.0,0.,24.0,0.,24.0,0.,24.0
1979-07-15 12:33:44.120 ,1,1,0.,24.0,0.,24.0,0.,24.0,0.,24.0
1979-07-15 12:34:08.120 ,1,0,0.,24.0,0.,24.0,0.,24.0,0.,24.0
1979-07-15 12:34:32.120 ,0,1,0.,24.0,0.,24.0,0.,24.0,0.,24.0
1979-07-15 12:34:56.120 ,0,0,0.,24.0,0.,24.0,0.,24.0,0.,24.0
1979-07-15 12:35:20.120 ,0,1,0.,24.0,0.,24.0,0.,24.0,0.,24.0
1979-07-15 12:35:44.120 ,0,0,0.,24.0,0.,24.0,0.,24.0,0.,24.0
1979-07-15 12:36:08.120 ,1,1,0.,24.0,0.,24.0,0.,24.0,0.,24.0
1979-07-15 12:36:32.120 ,1,0,0.,24.0,0.,24.0,0.,24.0,0.,24.0
1979-07-15 12:36:56.120 ,2,1,0.,24.0,0.,24.0,0.,24.0,0.,24.0
1979-07-15 12:37:20.120 ,2,0,0.,24.0,0.,24.0,0.,24.0,0.,24.0
1979-07-15 12:37:44.120 ,3,1,0.,24.0,0.,24.0,0.,24.0,0.,24.0
1979-07-15 12:38:08.120 ,3,0,0.,24.0,0.,24.0,0.,24.0,0.,24.0
1979-07-15 12:38:32.120 ,4,1,0.,24.0,0.,24.0,0.,24.0,0.,24.0
1979-07-15 12:38:56.120 ,4,0,0.,24.0,0.,24.0,0.,24.0,0.,24.0
1979-07-15 12:39:20.120 ,5,1,0.,24.0,0.,24.0,0.,24.0,0.,24.0
1979-07-15 12:39:44.120 ,5,0,0.,24.0,0.,24.0,0.,24.0,0.,24.0
1979-07-15 12:40:08.120 ,6,1,0.,24.0,0.,24.0,0.,24.0,0.,24.0
1979-07-15 12:40:32.120 ,6,0,0.,24.0,0.,24.0,0.,24.0,0.,24.0
1979-07-15 12:40:56.120 ,7,1,0.,24.0,0.,24.0,0.,24.0,0.,24.0
1979-07-15 12:41:20.120 ,7,0,0.,24.0,0.,24.0,0.,24.0,0.,24.0
1979-07-15 12:41:44.120 ,7,1,0.,24.0,0.,24.0,0.,24.0,0.,24.0
1979-07-15 12:42:08.120 ,7,0,0.,24.0,0.,24.0,0.,24.0,0.,24.0
1979-07-15 12:42:32.120 ,6,1,0.,24.0,0.,24.0,0.,24.0,0.,24.0
1979-07-15 12:42:56.120 ,6,0,0.,24.0,0.,24.0,0.,24.0,0.,24.0
1979-07-15 12:43:20.120 ,5,1,0.,24.0,0.,24.0,0.,24.0,0.,24.0
1979-07-15 12:43:44.120 ,5,0,0.,24.0,0.,24.0,0.,24.0,0.,24.0
1979-07-15 12:44:08.120 ,4,1,0.,24.0,0.,24.0,0.,24.0,0.,24.0
1979-07-15 12:44:32.120 ,4,0,0.,24.0,0.,24.0,0.,24.0,0.,24.0
1979-07-15 12:44:56.120 ,3,1,0.,24.0,0.,24.0,0.,24.0,0.,24.0
1979-07-15 12:45:20.120 ,3,0,0.,24.0,0.,24.0,0.,24.0,0.,24.0
1979-07-15 12:45:44.120 ,2,1,0.,24.0,0.,24.0,0.,24.0,0.,24.0
1979-07-15 12:46:08.120 ,2,0,0.,24.0,0.,24.0,0.,24.0,0.,24.0
1979-07-15 12:46:32.120 ,1,1,0.,24.0,0.,24.0,0.,24.0,0.,24.0
1979-07-15 12:46:56.120 ,1,0,0.,24.0,0.,24.0,0.,24.0,0.,24.0
1979-07-15 12:47:20.120 ,0,1,0.,24.0,0.,24.0,0.,24.0,0.,24.0
1979-07-15 12:47:44.120 ,0,0,0.,24.0,0.,24.0,0.,24.0,0.,24.0
1979-07-15 12:48:08.120 ,0,1,0.,24.0,0.,24.0,0.,24.0,0.,24.0
1979-07-15 12:48:32.120 ,0,0,0.,24.0,0.,24.0,0.,24.0,0.,24.0
1979-07-15 12:48:56.120 ,1,1,0.,24.0,0.,24.0,0.,24.0,0.,24.0
1979-07-15 12:49:20.120 ,1,0,0.,24.0,0.,24.0,0.,24.0,0.,24.0
1979-07-15 12:49:44.120 ,2,1,0.,24.0,0.,24.0,0.,24.0,0.,24.0
1979-07-15 12:50:08.120 ,2,0,0.,24.0,0.,24.0,0.,24.0,0.,24.0
1979-07-15 12:50:32.120 ,3,1,0.,24.0,0.,24.0,0.,24.0,0.,24.0
1979-07-15 12:50:56.120 ,3,0,0.,24.0,0.,24.0,0.,24.0,0.,24.0
1979-07-15 12:51:20.120 ,4,1,0.,24.0,0.,24.0,0.,24.0,0.,24.0
1979-07-15 12:51:44.120 ,4,0,0.,24.0,0.,24.0,0.,24.0,0.,24.0
1979-07-15 12:52:08.120 ,5,1,0.,24.0,0.,24.0,0.,24.0,0.,24.0
1979-07-15 12:52:32.120 ,5,0,0.,24.0,0.,24.0,0.,24.0,0.,24.0
1979-07-15 12:52:56.120 ,6,1,0.,24.0,0.,24.0,0.,24.0,0.,24.0
1979-07-15 12:53:20.120 ,6,0,0.,24.0,0.,24.0,0.,24.0,0.,24.0
1979-07-15 12:53:44.120 ,7,1,0.,24.0,0.,24.0,0.,24.0,0.,24.0
1979-07-15 12:54:08.120 ,7,0,0.,24.0,0.,24.0,0.,24.0,0.,24.0
1979-07-15 12:54:32.120 ,7,1,0.,24.0,0.,24.0,0.,24.0,0.,24.0
1979-07-15 12:54:56.120 ,7,0,0.,24.0,0.,24.0,0.,24.0,0.,24.0
1979-07-15 12:55:20.120 ,6,1,0.,24.0,0.,24.0,0.,24.0,0.,24.0
1979-07-15 12:55:44.120 ,6,0,0.,24.0,0.,24.0,0.,24.0,0.,24.0
1979-07-15 12:56:08.120 ,5,1,0.,24.0,0.,24.0,0.,24.0,0.,24.0
1979-07-15 12:56:32.120 ,5,0,0.,24.0,0.,24.0,0.,24.0,0.,24.0
1979-07-15 12:56:56.120 ,4,1,0.,24.0,0.,24.0,0.,24.0,0.,24.0
1979-07-15 12:57:20.120 ,4,0,0.,24.0,0.,24.0,0.,24.0,0.,24.0
1979-07-15 12:57:44.120 ,3,1,0.,24.0,0.,24.0,0.,24.0,0.,24.0
1979-07-15 12:58:08.120 ,3,0,0.,24.0,0.,24.0,0.,24.0,0.,24.0
1979-07-15 12:58:32.120 ,2,1,0.,24.0,0.,24.0,0.,24.0,0.,24.0
1979-07-15 12:58:56.120 ,2,0,0.,24.0,0.,24.0,0.,24.0,0.,24.0
1979-07-15 12:59:20.120 ,1,1,0.,24.0,0.,24.0,0.,24.0,0.,24.0
1979-07-15 12:59:44.120 ,1,0,0.,24.0,0.,24.0,0.,24.0,0.,24.0
1979-07-15 13:00:08.120 ,0,1,0.,24.0,0.,24.0,0.,24.0,0.,24.0
1979-07-15 13:00:32.120 ,0,0,0.,24.0,0.,24.0,0.,24.0,0.,24.0
1979-07-15 13:00:56.120 ,0,1,0.,24.0,0.,24.0,0.,24.0,0.,24.0
1979-07-15 13:01:20.120 ,0,0,0.,24.0,0.,24.0,0.,24.0,0.,24.0
1979-07-15 13:01:44.120 ,1,1,0.,24.0,0.,24.0,0.,24.0,0.,24.0
1979-07-15 13:02:08.120 ,1,0,0.,24.0,0.,24.0,0.,24.0,0.,24.0
1979-07-15 13:02:32.120 ,2,1,0.,24.0,0.,24.0,0.,24.0,0.,24.0
1979-07-15 13:02:56.120 ,0,0,0.,24.0,0.,24.0,0.,24.0,0.,24.0
1979-07-15 13:03:29.720 ,0,0,,0,,0,,0,,0
1979-07-15 13:03:44.120 ,0,0,0.,24.0,0.,24.0,0.,24.0,0.,24.0
1979-07-15 13:04:08.120 ,4,1,0.,24.0,0.,24.0,0.,24.0,0.,24.0
1979-07-15 13:04:32.120 ,4,0,0.,24.0,0.,24.0,0.,24.0,0.,24.0
1979-07-15 13:04:56.120 ,5,1,0.,24.0,0.,24.0,0.,24.0,0.,24.0
1979-07-15 13:05:20.120 ,5,0,0.,24.0,0.,24.0,0.,24.0,0.,24.0
1979-07-15 13:05:44.120 ,6,1,0.,24.0,0.,24.0,0.,24.0,0.,24.0
1979-07-15 13:06:08.120 ,6,0,0.,24.0,0.,24.0,0.,24.0,0.,24.0
1979-07-15 13:06:32.120 ,7,0,0.,24.0,0.,24.0,0.,24.0,0.,24.0
1979-07-15 13:06:56.120 ,7,0,0.,24.0,0.,24.0,0.,24.0,0.,24.0
1979-07-15 13:07:20.120 ,5,1,0.,24.0,0.,24.0,0.,24.0,0.,24.0
1979-07-15 13:07:44.120 ,1,1,0.,24.0,0.,24.0,0.,24.0,0.,24.0
1979-07-15 13:08:08.120 ,2,1,0.,24.0,0.,24.0,0.,24.0,0.,24.0
1979-07-15 13:08:32.120 ,6,1,0.,24.0,0.,24.0,0.,24.0,0.,24.0
1979-07-15 13:08:56.120 ,5,1,0.,24.0,0.,24.0,0.,24.0,0.,24.0
1979-07-15 13:09:20.120 ,1,1,0.,24.0,0.,24.0,0.,24.0,0.,24.0
1979-07-15 13:09:44.120 ,2,1,0.,24.0,0.,24.0,0.,24.0,0.,24.0
1979-07-15 13:10:08.120 ,6,1,0.,24.0,0.,24.0,0.,24.0,0.,24.0
1979-07-15 13:10:32.120 ,5,1,0.,24.0,0.,24.0,0.,24.0,0.,24.0
1979-07-15 13:10:56.120 ,1,1,0.,24.0,0.,24.0,0.,24.0,0.,24.0
1979-07-15 13:11:20.120 ,2,1,0.,24.0,0.,24.0,0.,24.0,0.,24.0
1979-07-15 13:11:44.120 ,6,1,0.,24.0,0.,24.0,0.,24.0,0.,24.0
1979-07-15 13:12:08.120 ,5,1,0.,24.0,0.,24.0,0.,24.0,0.,24.0
1979-07-15 13:12:32.120 ,1,1,0.,24.0,0.,24.0,0.,24.0,0.,24.0
1979-07-15 13:12:56.120 ,2,1,0.,24.0,0.,24.0,0.,24.0,0.,24.0
1979-07-15 13:13:20.120 ,6,1,0.,24.0,0.,24.0,0.,24.0,0.,24.0
1979-07-15 13:13:44.120 ,5,1,0.,24.0,0.,24.0,0.,24.0,0.,24.0
1979-07-15 13:14:08.120 ,1,1,0.,24.0,0.,24.0,0.,24.0,0.,24.0
1979-07-15 13:14:33.320 ,2,1,0.,24.0,0.,24.0,0.,24.0,0.,24.0
1979-07-15 13:14:56.120 ,6,1,0.,24.0,0.,24.0,0.,24.0,0.,24.0
1979-07-15 13:15:20.120 ,5,1,0.,24.0,0.,24.0,0.,24.0,0.,24.0
1979-07-15 13:15:44.120 ,1,1,0.,24.0,0.,24.0,0.,24.0,0.,24.0
1979-07-15 13:16:08.120 ,2,1,0.,24.0,0.,24.0,0.,24.0,0.,24.0
1979-07-15 13:16:32.120 ,6,1,0.,24.0,0.,24.0,0.,24.0,0.,24.0
1979-07-15 13:16:56.120 ,5,1,0.,24.0,0.,24.0,0.,24.0,0.,24.0
1979-07-15 13:17:20.120 ,1,1,0.,24.0,0.,24.0,0.,24.0,0.,24.0
1979-07-15 13:17:44.120 ,0,0,0.,24.0,0.,24.0,0.,24.0,0.,24.0
1979-07-15 13:18:08.120 ,0,0,0.,24.0,0.,24.0,0.,24.0,0.,24.0
1979-07-15 13:18:32.120 ,5,1,0.,24.0,0.,24.0,0.,24.0,0.,24.0
1979-07-15 13:18:56.120 ,5,0,0.,24.0,0.,24.0,0.,24.0,0.,24.0
1979-07-15 13:19:20.120 ,4,1,0.,24.0,0.,24.0,0.,24.0,0.,24.0
1979-07-15 13:19:44.120 ,4,0,0.,24.0,0.,24.0,0.,24.0,0.,24.0
1979-07-15 13:20:08.120 ,3,1,0.,24.0,0.,24.0,0.,24.0,0.,24.0
1979-07-15 13:20:32.120 ,3,0,0.,24.0,0.,24.0,0.,24.0,0.,24.0
1979-07-15 13:20:56.120 ,2,1,0.,24.0,0.,24.0,0.,24.0,0.,24.0
1979-07-15 13:21:20.120 ,2,0,0.,24.0,0.,24.0,0.,24.0,0.,24.0
1979-07-15 13:21:44.120 ,1,1,0.,24.0,0.,24.0,0.,24.0,0.,24.0
1979-07-15 13:22:08.120 ,1,0,0.,24.0,0.,24.0,0.,24.0,0.,24.0
1979-07-15 13:22:32.120 ,0,1,0.,24.0,0.,24.0,0.,24.0,0.,24.0
1979-07-15 13:22:56.120 ,0,0,0.,24.0,0.,24.0,0.,24.0,0.,24.0
1979-07-15 13:23:20.120 ,0,1,0.,24.0,0.,24.0,0.,24.0,0.,24.0
1979-07-15 13:23:44.120 ,0,0,0.,24.0,0.,24.0,0.,24.0,0.,24.0
1979-07-15 13:24:08.120 ,1,1,0.,24.0,0.,24.0,0.,24.0,0.,24.0
1979-07-15 13:24:32.120 ,1,0,0.,24.0,0.,24.0,0.,24.0,0.,24.0
1979-07-15 13:24:56.120 ,2,1,0.,24.0,0.,24.0,0.,24.0,0.,24.0
1979-07-15 13:25:20.120 ,2,0,0.,24.0,0.,24.0,0.,24.0,0.,24.0
1979-07-15 13:25:44.120 ,3,1,0.,24.0,0.,24.0,0.,24.0,0.,24.0
1979-07-15 13:26:08.120 ,3,0,0.,24.0,0.,24.0,0.,24.0,0.,24.0
1979-07-15 13:26:32.120 ,4,1,0.,24.0,0.,24.0,0.,24.0,0.,24.0
1979-07-15 13:26:56.120 ,4,0,0.,24.0,0.,24.0,0.,24.0,0.,24.0
1979-07-15 13:27:20.120 ,5,1,0.,24.0,0.,24.0,0.,24.0,0.,24.0
1979-07-15 13:27:44.120 ,5,0,0.,24.0,0.,24.0,0.,24.0,0.,24.0
1979-07-15 13:28:08.120 ,6,1,0.,24.0,0.,24.0,0.,24.0,0.,24.0
1979-07-15 13:28:32.120 ,6,0,0.,24.0,0.,24.0,0.,24.0,0.,24.0
1979-07-15 13:28:56.120 ,7,1,0.,24.0,0.,24.0,0.,24.0,0.,24.0
1979-07-15 13:29:20.120 ,7,0,0.,24.0,0.,24.0,0.,24.0,0.,24.0
1979-07-15 13:29:44.120 ,7,1,0.,24.0,0.,24.0,0.,24.0,0.,24.0
1979-07-15 13:30:08.120 ,7,0,0.,24.0,0.,24.0,0.,24.0,0.,24.0
1979-07-15 13:30:32.120 ,6,1,0.,24.0,0.,24.0,0.,24.0,0.,24.0
1979-07-15 13:30:56.120 ,6,0,0.,24.0,0.,24.0,0.,24.0,0.,24.0
1979-07-15 13:31:20.120 ,5,1,0.,24.0,0.,24.0,0.,24.0,0.,24.0
1979-07-15 13:31:44.120 ,5,0,0.,24.0,0.,24.0,0.,24.0,0.,24.0
1979-07-15 13:32:08.120 ,4,1,0.,24.0,0.,24.0,0.,24.0,0.,24.0
1979-07-15 13:32:32.120 ,4,0,0.,24.0,0.,24.0,0.,24.0,0.,24.0
1979-07-15 13:32:56.120 ,3,1,0.,24.0,0.,24.0,0.,24.0,0.,24.0
1979-07-15 13:33:20.120 ,3,0,0.,24.0,0.,24.0,0.,24.0,0.,24.0
1979-07-15 13:33:44.120 ,2,1,0.,24.0,0.,24.0,0.,24.0,0.,24.0
1979-07-15 13:34:08.120 ,2,0,0.,24.0,0.,24.0,0.,24.0,0.,24.0
1979-07-15 13:34:32.120 ,1,1,0.,24.0,0.,24.0,0.,24.0,0.,24.0
1979-07-15 13:34:56.120 ,1,0,0.,24.0,0.,24.0,0.,24.0,0.,24.0
1979-07-15 13:35:20.120 ,0,1,0.,24.0,0.,24.0,0.,24.0,0.,24.0
1979-07-15 13:35:44.120 ,0,0,0.,24.0,0.,24.0,0.,24.0,0.,24.0
1979-07-15 13:36:08.120 ,0,1,0.,24.0,0.,24.0,0.,24.0,0.,24.0
1979-07-15 13:36:32.120 ,0,0,0.,24.0,0.,24.0,0.,24.0,0.,24.0
1979-07-15 13:36:56.120 ,1,1,0.,24.0,0.,24.0,0.,24.0,0.,24.0
1979-07-15 13:37:20.120 ,1,0,0.,24.0,0.,24.0,0.,24.0,0.,24.0
1979-07-15 13:37:44.120 ,2,1,0.,24.0,0.,24.0,0.,24.0,0.,24.0
1979-07-15 13:38:08.120 ,2,0,0.,24.0,0.,24.0,0.,24.0,0.,24.0
1979-07-15 13:38:32.120 ,3,1,0.,24.0,0.,24.0,0.,24.0,0.,24.0
1979-07-15 13:38:56.120 ,0,0,0.,24.0,0.,24.0,0.,24.0,0.,24.0
1979-07-15 13:40:11.720 ,0,0,0.,24.0,0.,24.0,0.,24.0,0.,24.0
1979-07-15 13:40:32.120 ,0,0,0.,24.0,0.,24.0,0.,24.0,0.,24.0
1979-07-15 13:40:56.120 ,6,1,0.,24.0,0.,24.0,0.,24.0,0.,24.0
1979-07-15 13:41:20.120 ,6,0,0.,24.0,0.,24.0,0.,24.0,0.,24.0
1979-07-15 13:41:44.120 ,7,1,0.,24.0,0.,24.0,0.,24.0,0.,24.0
1979-07-15 13:42:08.120 ,7,0,0.,24.0,0.,24.0,0.,24.0,0.,24.0
1979-07-15 13:42:32.120 ,7,1,0.,24.0,0.,24.0,0.,24.0,0.,24.0
1979-07-15 13:42:56.120 ,7,0,0.,24.0,0.,24.0,0.,24.0,0.,24.0
1979-07-15 13:43:20.120 ,6,1,0.,24.0,0.,24.0,0.,24.0,0.,24.0
1979-07-15 13:43:44.120 ,6,0,0.,24.0,0.,24.0,0.,24.0,0.,24.0
1979-07-15 13:44:08.120 ,5,1,0.,24.0,0.,24.0,0.,24.0,0.,24.0
1979-07-15 13:44:32.120 ,5,0,0.,24.0,0.,24.0,0.,24.0,0.,24.0
1979-07-15 13:44:56.120 ,4,1,0.,24.0,0.,24.0,0.,24.0,0.,24.0
1979-07-15 13:45:20.120 ,0,0,0.,24.0,0.,24.0,0.,24.0,0.,24.0
1979-07-15 13:45:57.320 ,0,0,,0,,0,,0,,0
1979-07-15 13:46:08.120 ,0,0,0.,24.0,0.,24.0,0.,24.0,0.,24.0
1979-07-15 13:46:32.120 ,2,1,0.,24.0,0.,24.0,0.,24.0,0.,24.0
1979-07-15 13:46:56.120 ,2,0,0.,24.0,0.,24.0,0.,24.0,0.,24.0
1979-07-15 13:47:20.120 ,1,1,0.,24.0,0.,24.0,0.,24.0,0.,24.0
1979-07-15 13:47:44.120 ,1,0,0.,24.0,0.,24.0,0.,24.0,0.,24.0
1979-07-15 13:48:08.120 ,0,1,0.,24.0,0.,24.0,0.,24.0,0.,24.0
1979-07-15 13:48:32.120 ,0,0,0.,24.0,0.,24.0,0.,24.0,0.,24.0
1979-07-15 13:48:56.120 ,0,1,0.,24.0,0.,24.0,0.,24.0,0.,24.0
1979-07-15 13:49:20.120 ,0,0,0.,24.0,0.,24.0,0.,24.0,0.,24.0
1979-07-15 13:49:44.120 ,1,1,0.,24.0,0.,24.0,0.,24.0,0.,24.0
1979-07-15 13:50:08.120 ,1,0,0.,24.0,0.,24.0,0.,24.0,0.,24.0
1979-07-15 13:50:32.120 ,2,1,0.,24.0,0.,24.0,0.,24.0,0.,24.0
1979-07-15 13:50:56.120 ,2,0,0.,24.0,0.,24.0,0.,24.0,0.,24.0
1979-07-15 13:51:20.120 ,3,1,0.,24.0,0.,24.0,0.,24.0,0.,24.0
1979-07-15 13:51:44.120 ,3,0,0.,24.0,0.,24.0,0.,24.0,0.,24.0
1979-07-15 13:52:08.120 ,4,1,0.,24.0,0.,24.0,0.,24.0,0.,24.0
1979-07-15 13:52:32.120 ,4,0,0.,24.0,0.,24.0,0.,24.0,0.,24.0
1979-07-15 13:52:56.120 ,5,1,0.,24.0,0.,24.0,0.,24.0,0.,24.0
1979-07-15 13:53:20.120 ,5,0,0.,24.0,0.,24.0,0.,24.0,0.,24.0
1979-07-15 13:53:44.120 ,6,1,0.,24.0,0.,24.0,0.,24.0,0.,24.0
1979-07-15 13:54:08.120 ,6,0,0.,24.0,0.,24.0,0.,24.0,0.,24.0
1979-07-15 13:54:32.120 ,7,0,0.,24.0,0.,24.0,0.,24.0,0.,24.0
1979-07-15 13:54:56.120 ,7,0,0.,24.0,0.,24.0,0.,24.0,0.,24.0
1979-07-15 13:55:20.120 ,5,1,0.,24.0,0.,24.0,0.,24.0,0.,24.0
1979-07-15 13:55:44.120 ,1,1,0.,24.0,0.,24.0,0.,24.0,0.,24.0
1979-07-15 13:56:08.120 ,2,1,0.,24.0,0.,24.0,0.,24.0,0.,24.0
1979-07-15 13:56:32.120 ,6,1,0.,24.0,0.,24.0,0.,24.0,0.,24.0
1979-07-15 13:56:56.120 ,5,1,0.,24.0,0.,24.0,0.,24.0,0.,24.0
1979-07-15 13:57:20.120 ,1,1,0.,24.0,0.,24.0,0.,24.0,0.,24.0
1979-07-15 13:57:44.120 ,2,1,0.,24.0,0.,24.0,0.,24.0,0.,24.0
1979-07-15 13:58:08.120 ,6,1,0.,24.0,0.,24.0,0.,24.0,0.,24.0
1979-07-15 13:58:32.120 ,5,1,0.,24.0,0.,24.0,0.,24.0,0.,24.0
1979-07-15 13:58:56.120 ,1,1,0.,24.0,0.,24.0,0.,24.0,0.,24.0
1979-07-15 13:59:20.120 ,2,1,0.,24.0,0.,24.0,0.,24.0,0.,24.0
1979-07-15 13:59:44.120 ,6,1,0.,24.0,0.,24.0,0.,24.0,0.,24.0
1979-07-15 14:00:08.120 ,5,1,0.,24.0,0.,24.0,0.,24.0,0.,24.0
1979-07-15 14:00:32.120 ,1,1,0.,24.0,0.,24.0,0.,24.0,0.,24.0
1979-07-15 14:00:56.120 ,2,1,0.,24.0,0.,24.0,0.,24.0,0.,24.0
1979-07-15 14:01:20.120 ,6,1,0.,24.0,0.,24.0,0.,24.0,0.,24.0
1979-07-15 14:01:44.120 ,5,1,0.,24.0,0.,24.0,0.,24.0,0.,24.0
1979-07-15 14:02:08.120 ,1,1,0.,24.0,0.,24.0,0.,24.0,0.,24.0
1979-07-15 14:02:32.120 ,2,1,0.,24.0,0.,24.0,0.,24.0,0.,24.0
1979-07-15 14:02:56.120 ,6,1,0.,24.0,0.,24.0,0.,24.0,0.,24.0
1979-07-15 14:03:20.120 ,5,1,0.,24.0,0.,24.0,0.,24.0,0.,24.0
1979-07-15 14:03:44.120 ,1,1,0.,24.0,0.,24.0,0.,24.0,0.,24.0
1979-07-15 14:04:08.120 ,2,1,0.,24.0,0.,24.0,0.,24.0,0.,24.0
1979-07-15 14:04:32.120 ,6,1,0.,24.0,0.,24.0,0.,24.0,0.,24.0
1979-07-15 14:04:56.120 ,5,1,0.,24.0,0.,24.0,0.,24.0,0.,24.0
1979-07-15 14:05:20.120 ,1,1,0.,24.0,0.,24.0,0.,24.0,0.,24.0
1979-07-15 14:05:44.120 ,0,0,0.,24.0,0.,24.0,0.,24.0,0.,24.0
1979-07-15 14:06:08.120 ,0,0,0.,24.0,0.,24.0,0.,24.0,0.,24.0
1979-07-15 14:06:32.120 ,5,1,0.,24.0,0.,24.0,0.,24.0,0.,24.0
1979-07-15 14:06:56.120 ,5,0,0.,24.0,0.,24.0,0.,24.0,0.,24.0
1979-07-15 14:07:20.120 ,4,1,0.,24.0,0.,24.0,0.,24.0,0.,24.0
1979-07-15 14:07:44.120 ,4,0,0.,24.0,0.,24.0,0.,24.0,0.,24.0
1979-07-15 14:08:08.120 ,3,1,0.,24.0,0.,24.0,0.,24.0,0.,24.0
1979-07-15 14:08:32.120 ,3,0,0.,24.0,0.,24.0,0.,24.0,0.,24.0
1979-07-15 14:08:56.120 ,2,1,0.,24.0,0.,24.0,0.,24.0,0.,24.0
1979-07-15 14:09:20.120 ,2,0,0.,24.0,0.,24.0,0.,24.0,0.,24.0
1979-07-15 14:09:44.120 ,1,1,0.,24.0,0.,24.0,0.,24.0,0.,24.0
1979-07-15 14:10:08.120 ,1,0,0.,24.0,0.,24.0,0.,24.0,0.,24.0
1979-07-15 14:10:32.120 ,0,1,0.,24.0,0.,24.0,0.,24.0,0.,24.0
1979-07-15 14:10:56.120 ,0,0,0.,24.0,0.,24.0,0.,24.0,0.,24.0
1979-07-15 14:11:20.120 ,0,1,0.,24.0,0.,24.0,0.,24.0,0.,24.0
1979-07-15 14:11:44.120 ,0,0,0.,24.0,0.,24.0,0.,24.0,0.,24.0
1979-07-15 14:12:08.120 ,1,1,0.,24.0,0.,24.0,0.,24.0,0.,24.0
1979-07-15 14:12:32.120 ,1,0,0.,24.0,0.,24.0,0.,24.0,0.,24.0
1979-07-15 14:12:56.120 ,2,1,0.,24.0,0.,24.0,0.,24.0,0.,24.0
1979-07-15 14:13:20.120 ,2,0,0.,24.0,0.,24.0,0.,24.0,0.,24.0
1979-07-15 14:13:44.120 ,3,1,0.,24.0,0.,24.0,0.,24.0,0.,24.0
1979-07-15 14:14:08.120 ,0,0,0.,24.0,0.,24.0,0.,24.0,0.,24.0
1979-07-15 14:14:38.720 ,0,0,0.,24.0,0.,24.0,0.,24.0,0.,24.0
1979-07-15 14:14:56.120 ,0,0,0.,24.0,0.,24.0,0.,24.0,0.,24.0
1979-07-15 14:15:20.120 ,5,1,0.,24.0,0.,24.0,0.,24.0,0.,24.0
1979-07-15 14:15:44.120 ,5,0,0.,24.0,0.,24.0,0.,24.0,0.,24.0
1979-07-15 14:16:08.120 ,6,1,0.,24.0,0.,24.0,0.,24.0,0.,24.0
1979-07-15 14:16:32.120 ,6,0,0.,24.0,0.,24.0,0.,24.0,0.,24.0
1979-07-15 14:16:56.120 ,7,1,0.,24.0,0.,24.0,0.,24.0,0.,24.0
1979-07-15 14:17:44.120 ,7,1,0.,24.0,0.,24.0,0.,24.0,0.,24.0
1979-07-15 14:18:08.120 ,7,0,0.,24.0,0.,24.0,0.,24.0,0.,24.0
1979-07-15 14:18:32.120 ,6,1,0.,24.0,0.,24.0,0.,24.0,0.,24.0
1979-07-15 14:18:56.120 ,6,0,0.,24.0,0.,24.0,0.,24.0,0.,24.0
1979-07-15 14:19:20.120 ,5,1,0.,24.0,0.,24.0,0.,24.0,0.,24.0
1979-07-15 14:19:44.120 ,5,0,0.,24.0,0.,24.0,0.,24.0,0.,24.0
1979-07-15 14:20:08.120 ,4,1,0.,24.0,0.,24.0,0.,24.0,0.,24.0
1979-07-15 14:20:32.120 ,4,0,0.,24.0,0.,24.0,0.,24.0,0.,24.0
1979-07-15 14:20:56.120 ,3,1,0.,24.0,0.,24.0,0.,24.0,0.,24.0
1979-07-15 14:21:20.120 ,3,0,0.,24.0,0.,24.0,0.,24.0,0.,24.0
1979-07-15 14:21:44.120 ,0,0,,0,,0,,0,,0
1979-07-15 14:22:08.120 ,0,0,0.,24.0,0.,24.0,0.,24.0,0.,24.0
1979-07-15 14:22:32.120 ,0,0,,0,,0,,0,,0
1979-07-15 14:22:56.120 ,0,0,0.,24.0,0.,24.0,0.,24.0,0.,24.0
1979-07-15 14:23:20.120 ,0,1,0.,24.0,0.,24.0,0.,24.0,0.,24.0
1979-07-15 14:23:44.120 ,0,0,0.,24.0,0.,24.0,0.,24.0,0.,24.0
1979-07-15 14:24:41.720 ,0,0,,0,,0,,0,,0
1979-07-15 14:24:56.120 ,1,1,0.,24.0,0.,24.0,0.,24.0,0.,24.0
1979-07-15 14:25:20.120 ,1,0,0.,24.0,0.,24.0,0.,24.0,0.,24.0
1979-07-15 14:25:44.120 ,2,1,0.,24.0,0.,24.0,0.,24.0,0.,24.0
1979-07-15 14:26:08.120 ,2,0,0.,24.0,0.,24.0,0.,24.0,0.,24.0
1979-07-15 14:26:32.120 ,3,1,0.,24.0,0.,24.0,0.,24.0,0.,24.0
1979-07-15 14:26:56.120 ,3,0,0.,24.0,0.,24.0,0.,24.0,0.,24.0
1979-07-15 14:27:20.120 ,4,1,0.,24.0,0.,24.0,0.,24.0,0.,24.0
1979-07-15 14:27:44.120 ,4,0,0.,24.0,0.,24.0,0.,24.0,0.,24.0
1979-07-15 14:28:08.120 ,5,1,0.,24.0,0.,24.0,0.,24.0,0.,24.0
1979-07-15 14:28:32.120 ,5,0,0.,24.0,0.,24.0,0.,24.0,0.,24.0
1979-07-15 14:28:56.120 ,6,1,0.,24.0,0.,24.0,0.,24.0,0.,24.0
1979-07-15 14:29:20.120 ,6,0,0.,24.0,0.,24.0,0.,24.0,0.,24.0
1979-07-15 14:29:44.120 ,7,1,0.,24.0,0.,24.0,0.,24.0,0.,24.0
1979-07-15 14:30:08.120 ,7,0,0.,24.0,0.,24.0,0.,24.0,0.,24.0
1979-07-15 14:30:32.120 ,7,1,0.,24.0,0.,24.0,0.,24.0,0.,24.0
1979-07-15 14:30:56.120 ,7,0,0.,24.0,0.,24.0,0.,24.0,0.,24.0
1979-07-15 14:31:20.120 ,6,1,0.,24.0,0.,24.0,0.,24.0,0.,24.0
1979-07-15 14:31:44.120 ,6,0,0.,24.0,0.,24.0,0.,24.0,0.,24.0
1979-07-15 14:32:08.120 ,5,1,0.,24.0,0.,24.0,0.,24.0,0.,24.0
1979-07-15 14:32:32.120 ,5,0,0.,24.0,0.,24.0,0.,24.0,0.,24.0
1979-07-15 14:32:56.120 ,4,1,0.,24.0,0.,24.0,0.,24.0,0.,24.0
1979-07-15 14:33:20.120 ,4,0,0.,24.0,0.,24.0,0.,24.0,0.,24.0
1979-07-15 14:33:44.120 ,3,1,0.,24.0,0.,24.0,0.,24.0,0.,24.0
1979-07-15 14:34:08.120 ,3,0,0.,24.0,0.,24.0,0.,24.0,0.,24.0
1979-07-15 14:34:32.120 ,2,1,0.,24.0,0.,24.0,0.,24.0,0.,24.0
1979-07-15 14:34:56.120 ,2,0,0.,24.0,0.,24.0,0.,24.0,0.,24.0
1979-07-15 14:35:20.120 ,1,1,0.,24.0,0.,24.0,0.,24.0,0.,24.0
1979-07-15 14:35:44.120 ,1,0,0.,24.0,0.,24.0,0.,24.0,0.,24.0
1979-07-15 14:36:08.120 ,0,1,0.,24.0,0.,24.0,0.,24.0,0.,24.0